Regional Weather Roundup
Issued by NWS Grand Forks, ND

Home | Current Version | Previous Version | Text Only | Print | Product List | Glossary On
Versions: 1 2 3 4 5 6 7 8 9 10 11 12 13 14 15 16 17 18 19 20 21 22 23 24 25 26 27 28 29 30 31 32 33 34 35 36 37 38 39 40 41 42 43 44 45 46 47 48 49 50
000
ASUS43 KFGF 161531
RWRFGF
PRAIRIE TO PINES  WEATHER ROUNDUP
NATIONAL WEATHER SERVICE EASTERN NORTH DAKOTA/GRAND FORKS ND
1000 AM CDT TUE SEP 16 2014

 **SATELLITE DATA USED TO AUGMENT SKY COVER AT AUTOMATED STATIONS**
 *****  WEATHER ACROSS EASTERN NORTH DAKOTA  *****

CITY           SKY/WX    TMP DP  RH WIND       PRES   REMARKS
GRAND FORKS    MOSUNNY   58  43  57 SW8       30.02F
GRAND FRKS AFB SUNNY     60  43  53 W8        30.02F
GRAND FRKS NWS   N/A     59 N/A N/A W7          N/A
DEVILS LAKE    SUNNY     57  41  54 W13       30.01S
FARGO          SUNNY     56  40  55 SW10      30.07F
WAHPETON ARPT  SUNNY     55  39  54 S7        30.09F
$$

 ***** WEATHER ACROSS CENTRAL AND WESTERN NORTH DAKOTA  *****

CITY           SKY/WX    TMP DP  RH WIND       PRES   REMARKS
BISMARCK       SUNNY     53  43  68 VRB3      30.03F
MINOT          SUNNY     56  42  59 SW12      30.00S
JAMESTOWN      SUNNY     54  43  66 S7        30.04F
MINOT AFB      SUNNY     57  45  64 W5        29.99F
GARRISON         N/A     54  44  69 S7        30.01F
WILLISTON      SUNNY     49  38  65 CALM      30.02F
DICKINSON      SUNNY     53  45  74 SW3       30.00S
HETTINGER      SUNNY     51  43  74 CALM      30.03S
$$

 *****  OTHER AIRPORT OBSERVATIONS IN OUR AREA  *****

CITY           SKY/WX    TMP DP  RH WIND       PRES   REMARKS
WALHALLA         N/A     59  41  51 W3        29.99F
GRAFTON AIRPOR FAIR      63  45  51 W14       29.99F
VALLEY CITY AR FAIR      57  41  54 SW14      30.06S
CANDO          FAIR      59  43  55 W8        30.02S
CAVALIER APRT  FAIR      59  43  55 W9        30.00S
GWINNER        SUNNY     57  43  58 SW12      30.08F
SHEYENNE NWR     N/A     57  43  59 SW7       29.95
ROLLA          FAIR      63  41  45 CALM      30.01S
 ***** THE ABOVE OBSERVATIONS ARE NON NWS ARE NOT QUALITY
       CONTROLLED AND MAY MIS-REPORT RAIN FOR SNOW...
$$

  *****  WEATHER ACROSS NORTHERN MINNESOTA  *****

CITY           SKY/WX    TMP DP  RH WIND       PRES   REMARKS
FLAG ISLAND    MOSUNNY   55  45  67 NW13      29.96S
WARROAD        PTSUNNY   52  45  76 W7        30.00R
ROSEAU         CLOUDY    54  45  71 SW6       30.01R
HALLOCK        PTSUNNY   55  45  67 SW5       30.00S
THF RVR FALLS  SUNNY     55  39  54 SW8       30.04S
BAUDETTE       CLOUDY    53  42  66 VRB3      30.00R
WASKISH        CLOUDY    57  45  62 SW13      30.02S
CROOKSTON      MOSUNNY   54  43  66 SW9       30.05F
STEPHEN NDAWN    N/A     54  45  71 W3          N/A
GREENBUSH NDAW   N/A     54  43  66 SW8         N/A
$$
  *****  WEATHER ACROSS CENTRAL AND WEST MINNESOTA  *****

CITY           SKY/WX    TMP DP  RH WIND       PRES   REMARKS
FOSSTON        SUNNY     55  43  62 SW15      30.07F
BEMIDJI        SUNNY     58  39  49 SW13G18   30.05F
PARK RAPIDS    SUNNY     57  40  52 W12       30.09F
ELBOW LAKE     FAIR      56  43  62 S6        30.11F
WADENA         SUNNY     57  43  58 W8        30.10S
DETROIT LAKES  SUNNY     57  41  54 W8        30.10S
MOORHEAD       SUNNY     54  45  71 SW9       30.09S
FERGUS FALLS   SUNNY     55  37  50 S7        30.11F
MORRIS MN      SUNNY     57  45  62 SW7       30.11S
STAPLES        SUNNY     57  39  51 SW7       30.11S
$$
  *****  WEATHER ELSEWHERE ACROSS MINNESOTA  *****

CITY           SKY/WX    TMP DP  RH WIND       PRES   REMARKS
DULUTH         MOSUNNY   57  38  48 W16       30.07F
INTRNTL FALLS  PTSUNNY   55  43  63 W10G17    29.98S
ELY            MOSUNNY   55  43  62 W6G18     30.00F
CLOQUET        SUNNY     57  37  47 W12G20    30.08S
WHEATON        SUNNY     59  45  58 S9        30.11F
BRAINERD       SUNNY     53  42  66 SW7       30.12S
HIBBING        SUNNY     56  40  55 W10       30.05F
ALEXANDRIA     SUNNY     54  41  61 SW9       30.14S
SAINT CLOUD    SUNNY     58  42  55 SW8       30.14F
MINNEAPOLIS    SUNNY     54  41  61 SW8       30.18S
$$

  *****  WEATHER ACROSS SOUTH DAKOTA  *****

CITY           SKY/WX    TMP DP  RH WIND       PRES   REMARKS
SIOUX FALLS    SUNNY     55  45  68 S12       30.16F
BROOKINGS      NOT AVBL
WATERTOWN      SUNNY     53  44  71 S13       30.11F
HURON          SUNNY     56  44  64 S12G17    30.07F
SISSETON         N/A     61  42  49 MISG      30.08F
ABERDEEN       SUNNY     53  44  71 S15G21    30.07F
MITCHELL       SUNNY     54  46  74 MISG      30.11F
PIERRE         SUNNY     56  45  66 SE8       30.01S
MOBRIDGE       SUNNY     54  45  71 S7        30.00F
RAPID CITY     SUNNY     63  47  55 NW5       30.03S
$$

  *****  SOME WEATHER IN NEARBY STATES *****

CITY           SKY/WX    TMP DP  RH WIND       PRES   REMARKS
GLASGOW MT     SUNNY     54  37  52 E9        30.00S
GREAT FALLS MT MOSUNNY   56  40  55 SW3       30.00F
CHEYENNE WY    SUNNY     68  38  33 W13       30.22S
SCOTTSBLUFF NE PTSUNNY   56  52  86 NW8       30.10S
OMAHA NE       SUNNY     54  48  80 S8        30.24F
DES MOINES IA  SUNNY     56  49  77 VRB3      30.24F
DAVENPORT IA   SUNNY     57  44  62 E5        30.25S
CHICAGO IL     MOSUNNY   58  47  66 CALM      30.22R
EAU CLAIRE WI  SUNNY     54  43  66 SW7       30.18S
LA CROSSE WI   SUNNY     52  45  77 S6        30.21S
$$

  *****  SOME NATIONAL WEATHER *****

CITY           SKY/WX    TMP DP  RH WIND       PRES   REMARKS
LA GUARDIA NY  CLOUDY    59  56  89 NE8       30.02S
RALEIGH NC     MOSUNNY   78  62  57 VRB6      30.05F
ATLANTA GA     PTSUNNY   78  71  79 NW9       30.11R
NEW ORLEANS LA MOSUNNY   84  75  74 CALM      30.07S HX  92
OKLAHOMA CITY  PTSUNNY   75  68  78 E3        30.16R
ALBUQUERQUE NM CLOUDY    65  57  75 N3        30.31S
SALT LAKE CITY MOSUNNY   72  45  37 SE8       30.10S
LOS ANGELES CA MOSUNNY   75  65  70 W5        29.78R
BOISE ID       PTSUNNY   70  52  52 S5        29.97R
SEATTLE WA     CLOUDY    59  54  82 S7        29.91R
$$

*** WEATHER ACROSS MANITOBA...SASKATCHEWAN AND ONTARIO ***
                ***ONTARIO***

CITY           SKY/WX    TMP DP  RH WIND       PRES   REMARKS
GERALDTON      LGT RAIN N/A N/A N/A NW3         N/A
THUNDER BAY    PTSUNNY   54  45  71 W7        29.93F
SIOUX LOOKOUT  CLOUDY    48  45  87 N6        29.94R
TORONTO        MOSUNNY   61  41  48 NW16      30.10S
BIG TROUT LK   MOSUNNY   34  28  80 N9        30.05R
PICKLE LAKE    PTSUNNY   37  28  70 N7        30.00R
DRYDEN         NOT AVBL
KENORA         PTSUNNY   55  45  67 N8        29.98
$$
                *** MANITOBA***

CITY           SKY/WX    TMP DP  RH WIND       PRES   REMARKS
BRANDON        MOSUNNY   54  45  71 CALM      30.00S
DAUPHIN        CLOUDY    50  46  87 E9        30.01S
ISLAND LAKE    MOSUNNY   36  25  64 NE6       30.12F
PILOT MOUND      N/A     54  43  66 W5          N/A
THE PAS        LGT RAIN  36  34  93 E9        30.07S
THOMPSON       MOSUNNY   32  28  86 NE2       30.15S
WINNIPEG       MOSUNNY   59  50  72 E6        29.99R
LYNN LAKE      MOSUNNY   34  25  69 MISG      30.13F
CHURCHILL      PTSUNNY   34  25  69 NW17G25   30.09R WCI  23
GILLAM         MOSUNNY   34  28  80 N14       30.12S WCI  24
$$
                ***SASKATCHEWAN***

CITY           SKY/WX    TMP DP  RH WIND       PRES   REMARKS
ESTEVAN        MOSUNNY   54  41  62 W3        30.01S
KINDERSLEY     MOSUNNY   50  43  76 SW2       29.94S
LLOYDMINSTER   MOSUNNY   54  48  82 CALM      29.91S
PRINCE ALBERT  PTSUNNY   46  45  93 E12       29.94S
REGINA         MOSUNNY   52  41  66 S5        29.98F
YORKTON        CLOUDY    52  45  76 VRB2      29.97R
N. BATTLEFORD  SUNNY     50  43  76 VRB2      29.94S
LA RONGE       LGT RAIN  39  37  93 E16       29.97F
SASKATOON      MOSUNNY   52  43  71 S7        29.93F
SWIFT CURRENT  SUNNY     59  41  51 SW15      29.96S
$$
NOTE: THESE ARE AUTOMATED STATIONS WITH LIMITED QUALITY CONTROL
      "FAIR" INDICATES FEW OR NO CLOUDS BELOW 12,000 FEET WITH NO
      SIGNIFICANT WEATHER AND/OR OBSTRUCTIONS TO VISIBILITY.
      SKY/WX - SKY CONDITION AND SIGNIFICANT WEATHER.
      TMP - AIR TEMPERATURE.    DP   - DEWPOINT TEMPERATURE.
      RH  - RELATIVE HUMIDITY.  PRES - PRESSURE.
      HX  - HEAT INDEX.         WCI  - WIND CHILL INDEX.
$


USA.gov is the U.S. government's official web portal to all federal, state and local government web resources and services.